Terminal Aerodrome Forecast
Issued by NWS

Home | Current Version | Previous Version | Graphics & Text | Print | Product List | Glossary On
Versions: 1 2 3 4 5 6 7 8 9 10 11 12 13 14 15 16 17
000
FTUS43 KABR 271100
TAFATY
TAF
KATY 271122Z 2712/2812 32014G24KT P6SM SCT020
      TEMPO 2713/2714 BKN020
     FM271400 32015G25KT P6SM OVC025
     FM271700 34017G27KT P6SM BKN035
     FM280200 35007KT P6SM SKC=

USA.gov is the U.S. government's official web portal to all federal, state and local government web resources and services.